[[{"header":{"parameterUnit":"m.s-1","parameterCategory":1,"la1":30.2991,"la2":30.254,"lo1":-89.0895,"lo2":-89.0444,"dy":0.0017,"dx":0.0017,"nx":28,"ny":28,"refTime":"2026-02-07T03:00:00:Z","depth":0,"parameterNumber":2,"parameterNumberName":"U-component_of_WINDS"},"data":[0,0,0,0,0,0,0,0,0,0,0,0,0,0,0,0,0,0,0,0,0,0,0,0,0,0,0,0,0,0,0,0,0,0,0,0,0,0,0,0,0,0,0,0,0,0,0,0,0,0,0,0,0,0,0,0,0,0,-0.2433,-0.2433,0,-0.244,-0.244,-0.244,-0.2477,-0.2478,-0.2479,-0.2479,-0.2485,-0.2484,-0.2484,0,0,0,0,0,0,0,0,0,0,0,0,0,-0.2446,-0.2446,-0.2433,-0.2433,-0.2433,-0.244,-0.244,-0.244,-0.2477,-0.2478,-0.2479,-0.248,-0.2485,-0.2485,-0.2484,0,0,0,0,0,0,0,0,0,0,0,0,0,-0.2446,-0.2446,-0.2433,-0.2452,-0.2454,-0.244,-0.244,-0.244,-0.2476,-0.2478,-0.2479,-0.248,-0.2486,-0.2485,-0.2484,-0.2452,0,0,-0.2481,-0.248,0,0,0,0,0,0,0,0,-0.2446,-0.2445,-0.2449,-0.2451,-0.2453,-0.2459,-0.2447,-0.2444,-0.2476,-0.2468,-0.2479,-0.2481,-0.2475,-0.2475,-0.2474,-0.2452,-0.2452,-0.2481,-0.248,-0.248,-0.2479,0,0,0,0,0,0,0,-0.2446,-0.2445,-0.2436,-0.2449,-0.2451,-0.2459,-0.246,-0.2447,-0.2464,-0.2469,-0.2471,-0.2472,-0.2476,-0.2475,-0.2474,-0.2452,-0.2481,-0.248,-0.2479,-0.2479,-0.2401,-0.24,0,0,0,0,0,0,-0.2443,-0.2445,-0.2435,-0.2436,-0.2452,-0.2458,-0.2459,-0.2456,-0.2464,-0.2467,-0.2471,-0.2473,-0.2476,-0.2475,-0.2474,-0.2436,-0.248,-0.2479,-0.2478,-0.2403,-0.2401,-0.24,0,0,0,0,0,0,-0.2444,-0.2442,-0.2435,-0.2441,-0.2441,-0.2456,-0.2452,-0.2455,-0.2453,-0.2466,-0.2469,-0.2466,-0.2477,-0.2476,-0.2456,-0.2436,-0.2478,-0.2477,-0.2405,-0.2402,-0.24,-0.2359,0,0,0,0,0,0,-0.2444,-0.2442,-0.2431,-0.2441,-0.244,-0.2418,-0.245,-0.2454,-0.2452,-0.2455,-0.2462,-0.2464,-0.2478,-0.2458,-0.2455,-0.2436,-0.2477,-0.2406,-0.2404,-0.2401,-0.2362,-0.2355,-0.235,0,0,0,0,0,-0.2444,-0.2419,-0.243,-0.2429,-0.2427,-0.2417,-0.2416,-0.2433,-0.245,-0.2438,-0.2446,-0.2464,-0.2439,-0.2455,-0.2453,-0.2433,-0.2408,-0.2404,-0.2401,-0.2365,-0.2357,-0.235,0,0,0,0,0,0,-0.2407,-0.2421,-0.2433,-0.2411,-0.2412,-0.2423,-0.2409,-0.2424,-0.242,-0.2424,-0.2443,-0.2445,-0.2422,-0.2426,-0.2444,-0.2401,-0.2426,-0.2422,-0.2399,-0.2392,-0.2386,-0.2385,-0.2476,0,0,0,0,0,-0.2396,-0.2387,-0.24,-0.2378,-0.2379,-0.2393,-0.239,-0.2402,-0.2404,-0.2405,-0.2411,-0.2412,-0.2404,-0.2398,-0.2392,-0.2363,-0.2363,-0.2347,-0.2341,-0.2336,-0.2332,-0.2315,-0.2307,-0.2389,-0.2389,-0.2389,0,0,-0.2373,-0.238,-0.2373,-0.2371,-0.2374,-0.2363,-0.2394,-0.2382,-0.2374,-0.2403,-0.2384,-0.2389,-0.2391,-0.2366,-0.2355,-0.2368,-0.231,-0.2332,-0.2328,-0.2327,-0.2311,-0.2303,-0.2296,-0.2387,-0.2387,-0.2387,0,0,-0.2326,-0.2331,-0.2313,-0.2315,-0.2318,-0.2328,-0.2323,-0.2331,-0.2335,-0.2318,-0.2338,-0.2328,-0.2315,-0.2315,-0.2313,-0.2263,-0.2279,-0.2261,-0.2229,-0.2211,-0.2205,-0.2199,-0.2179,-0.2172,-0.2257,-0.2257,-0.2257,0,-0.2297,-0.2283,-0.2302,-0.2288,-0.2285,-0.2311,-0.2292,-0.2292,-0.2293,-0.229,-0.2305,-0.2287,-0.229,-0.2264,-0.2252,-0.225,-0.2244,-0.226,-0.2204,-0.2199,-0.2194,-0.2175,-0.2168,-0.2254,-0.2255,-0.2255,-0.2255,0,-0.2246,-0.2236,-0.2221,-0.2221,-0.2217,-0.22,-0.2215,-0.2208,-0.222,-0.2228,-0.2208,-0.2212,-0.2206,-0.2201,-0.2213,-0.2176,-0.2184,-0.2201,-0.2227,-0.2183,-0.2166,-0.2159,-0.2251,-0.2252,-0.2253,-0.2253,0,0,-0.2177,-0.2186,-0.218,-0.2179,-0.2184,-0.2176,-0.216,-0.2154,-0.2147,-0.2146,-0.2132,-0.2119,-0.2134,-0.2132,-0.2144,-0.2129,-0.2086,-0.2147,-0.2148,-0.2134,-0.2043,-0.2029,-0.2021,-0.2097,-0.2096,-0.2095,-0.2042,0,-0.213,-0.2104,-0.2119,-0.209,-0.2079,-0.2102,-0.2088,-0.2088,-0.2094,-0.2085,-0.2092,-0.2082,-0.2104,-0.2102,-0.2088,-0.2094,-0.2068,-0.2099,-0.2082,-0.2081,-0.208,-0.2012,-0.1998,-0.1948,-0.2036,-0.2035,-0.2034,0,-0.2073,-0.207,-0.2039,-0.2044,-0.204,-0.2027,-0.2022,-0.2013,-0.2013,-0.2019,-0.2015,-0.203,-0.2012,-0.2038,-0.2013,-0.2033,-0.2027,-0.2029,-0.2027,-0.2026,-0.2054,-0.2007,-0.1933,-0.1925,-0.2024,-0.2025,-0.2026,0,-0.2023,-0.2011,-0.199,-0.1989,-0.1995,-0.1985,-0.1986,-0.1988,-0.1983,-0.1978,-0.1974,-0.1967,-0.1963,-0.1956,-0.1968,-0.1986,-0.194,-0.1968,-0.1942,-0.1942,-0.1931,-0.1931,-0.1853,-0.193,-0.193,-0.193,-0.193,0,-0.1969,-0.1949,-0.1967,-0.1955,-0.1932,-0.1949,-0.1926,-0.193,-0.1931,-0.1918,-0.1938,-0.1925,-0.1942,-0.1931,-0.194,-0.1916,-0.1914,-0.1917,-0.1919,-0.1914,-0.1914,-0.191,-0.1913,-0.1928,-0.1928,-0.1929,-0.1929,0,-0.1909,-0.1921,-0.19,-0.1907,-0.1908,-0.1891,-0.1896,-0.1883,-0.189,-0.1874,-0.1871,-0.1881,-0.1869,-0.188,-0.1868,-0.1873,-0.1841,-0.185,-0.1841,-0.1843,-0.1816,-0.1818,-0.1732,-0.172,-0.1805,-0.1805,-0.1804,0,-0.1873,-0.1858,-0.1863,-0.1856,-0.1856,-0.1845,-0.184,-0.1855,-0.1848,-0.1846,-0.1833,-0.1822,-0.1814,-0.1792,-0.1798,-0.1788,-0.1795,-0.1765,-0.1794,-0.1788,-0.1792,-0.1792,-0.1789,-0.1759,-0.1758,-0.1758,-0.1757,0,-0.1807,-0.1814,-0.1806,-0.1798,-0.1791,-0.1787,-0.1783,-0.1776,-0.1792,-0.1783,-0.177,-0.1764,-0.1751,-0.1738,-0.173,-0.173,-0.1745,-0.1748,-0.1741,-0.1735,-0.173,-0.173,-0.1824,-0.175,-0.175,-0.1751,-0.1751,-0.1752,-0.1757,-0.1744,-0.1745,-0.1734,-0.1733,-0.1729,-0.1717,-0.1722,-0.1712,-0.1703,-0.1713,-0.1696,-0.1695,-0.1685,-0.1683,-0.1669,-0.1681,-0.1672,-0.167,-0.1666,-0.1662,-0.1734,-0.1668,-0.1668,-0.1669,-0.1669,-0.1669,0,-0.1691,-0.1692,-0.1682,-0.1677,-0.1668,-0.1684,-0.168,-0.1671,-0.1657,-0.1654,-0.1646,-0.1629,-0.1617,-0.1622,-0.161,-0.1598,-0.1604,-0.1595,-0.1595,-0.1594,-0.1653,-0.1659,-0.1589,-0.159,-0.159,-0.159,-0.159,-0.159,-0.1655,-0.1633,-0.1639,-0.1615,-0.1617,-0.1601,-0.1598,-0.1593,-0.1591,-0.1572,-0.1562,-0.1566,-0.1565,-0.1553,-0.1542,-0.1544,-0.1537,-0.1525,-0.1528,-0.1583,-0.159,-0.1598,-0.1603,-0.1524,-0.1524,-0.147,-0.147,-0.1469]},{"header":{"parameterUnit":"m.s-1","parameterCategory":1,"la1":30.2991,"la2":30.254,"lo1":-89.0895,"lo2":-89.0444,"dy":0.0017,"dx":0.0017,"nx":28,"ny":28,"refTime":"2026-02-07T03:00:00:Z","depth":0,"parameterNumber":3,"parameterNumberName":"V-component_of_WINDS"},"data":[0,0,0,0,0,0,0,0,0,0,0,0,0,0,0,0,0,0,0,0,0,0,0,0,0,0,0,0,0,0,0,0,0,0,0,0,0,0,0,0,0,0,0,0,0,0,0,0,0,0,0,0,0,0,0,0,0,0,-3.313,-3.3131,0,-3.3207,-3.3208,-3.3209,-3.3222,-3.3221,-3.322,-3.322,-3.3294,-3.3297,-3.3299,0,0,0,0,0,0,0,0,0,0,0,0,0,-3.2993,-3.2996,-3.313,-3.3131,-3.3132,-3.3207,-3.3208,-3.3209,-3.3222,-3.3221,-3.322,-3.3219,-3.3293,-3.3296,-3.33,0,0,0,0,0,0,0,0,0,0,0,0,0,-3.3059,-3.2997,-3.313,-3.3148,-3.315,-3.3207,-3.3208,-3.3209,-3.3222,-3.3221,-3.322,-3.3219,-3.3292,-3.3296,-3.33,-3.3343,0,0,-3.3312,-3.3313,0,0,0,0,0,0,0,0,-3.3056,-3.3064,-3.3144,-3.3147,-3.3149,-3.3204,-3.3187,-3.3254,-3.3222,-3.3195,-3.322,-3.3219,-3.3265,-3.3271,-3.3287,-3.3347,-3.335,-3.3312,-3.3314,-3.3316,-3.3317,0,0,0,0,0,0,0,-3.3051,-3.3061,-3.3161,-3.3145,-3.3149,-3.3151,-3.316,-3.32,-3.3234,-3.3197,-3.3198,-3.3207,-3.3266,-3.3283,-3.3289,-3.3351,-3.3312,-3.3315,-3.3318,-3.3319,-3.3451,-3.3452,0,0,0,0,0,0,-3.3044,-3.3057,-3.3158,-3.3163,-3.3099,-3.3154,-3.3164,-3.3187,-3.3234,-3.324,-3.3208,-3.3207,-3.3277,-3.3284,-3.3292,-3.3346,-3.3316,-3.332,-3.3322,-3.345,-3.3451,-3.3453,0,0,0,0,0,0,-3.3041,-3.3053,-3.3155,-3.3111,-3.3124,-3.3158,-3.3184,-3.3189,-3.3207,-3.3242,-3.3248,-3.322,-3.3277,-3.3286,-3.3331,-3.3349,-3.3321,-3.3325,-3.3449,-3.345,-3.3452,-3.3455,0,0,0,0,0,0,-3.3037,-3.3051,-3.3069,-3.3111,-3.3126,-3.3194,-3.3185,-3.3191,-3.3214,-3.3214,-3.3254,-3.326,-3.3277,-3.3325,-3.3335,-3.3354,-3.3328,-3.3447,-3.3449,-3.3452,-3.3453,-3.3456,-3.3459,0,0,0,0,0,-3.3032,-3.3065,-3.3069,-3.3081,-3.3148,-3.3195,-3.3203,-3.3223,-3.3215,-3.3232,-3.3255,-3.3259,-3.3346,-3.3329,-3.334,-3.3361,-3.3446,-3.3449,-3.3451,-3.3452,-3.3456,-3.3459,0,0,0,0,0,0,-3.3022,-3.3071,-3.3076,-3.3124,-3.3155,-3.3197,-3.3219,-3.3226,-3.3259,-3.3257,-3.3279,-3.3288,-3.3332,-3.3351,-3.3332,-3.3406,-3.3395,-3.34,-3.3392,-3.3396,-3.3398,-3.3393,-3.3331,0,0,0,0,0,-3.3026,-3.306,-3.31,-3.3139,-3.3155,-3.3184,-3.3205,-3.3218,-3.325,-3.3263,-3.3289,-3.332,-3.3354,-3.3376,-3.3409,-3.3456,-3.3465,-3.3476,-3.3479,-3.3481,-3.3485,-3.3512,-3.3517,-3.3461,-3.3461,-3.3461,0,0,-3.3033,-3.3064,-3.3084,-3.3138,-3.3163,-3.3198,-3.3195,-3.3231,-3.3257,-3.3268,-3.3312,-3.3333,-3.3369,-3.3415,-3.3437,-3.3432,-3.3503,-3.3484,-3.3486,-3.3489,-3.3515,-3.3521,-3.3525,-3.3463,-3.3463,-3.3463,0,0,-3.3064,-3.3091,-3.3127,-3.3153,-3.3193,-3.3213,-3.3221,-3.3262,-3.3277,-3.3322,-3.3332,-3.3362,-3.3421,-3.3446,-3.3467,-3.3511,-3.3515,-3.3521,-3.3536,-3.3562,-3.3567,-3.3571,-3.3586,-3.3592,-3.3525,-3.3525,-3.3525,0,-3.3067,-3.3121,-3.3143,-3.318,-3.3204,-3.3218,-3.3254,-3.3278,-3.3326,-3.3342,-3.3337,-3.3412,-3.3437,-3.349,-3.3501,-3.3517,-3.3527,-3.3516,-3.3564,-3.3569,-3.3573,-3.3588,-3.3594,-3.3525,-3.3525,-3.3525,-3.3525,0,-3.3124,-3.3161,-3.3185,-3.3233,-3.3259,-3.3295,-3.3323,-3.3347,-3.3358,-3.3378,-3.3425,-3.3456,-3.3496,-3.351,-3.352,-3.3565,-3.3561,-3.356,-3.355,-3.3578,-3.3593,-3.3599,-3.3526,-3.3525,-3.3525,-3.3525,0,0,-3.3148,-3.3211,-3.3219,-3.3242,-3.3288,-3.3317,-3.3354,-3.3395,-3.3416,-3.3449,-3.348,-3.3531,-3.3531,-3.3554,-3.3568,-3.3591,-3.3624,-3.3587,-3.3588,-3.3593,-3.3677,-3.3677,-3.3683,-3.3628,-3.363,-3.3631,-3.3674,0,-3.3185,-3.3253,-3.3275,-3.3331,-3.3366,-3.3381,-3.3414,-3.3445,-3.3466,-3.3498,-3.352,-3.3556,-3.3553,-3.3567,-3.3591,-3.3615,-3.3641,-3.3613,-3.3657,-3.3659,-3.3648,-3.3691,-3.3691,-3.373,-3.368,-3.3681,-3.3681,0,-3.3236,-3.3272,-3.3332,-3.3376,-3.3391,-3.342,-3.3461,-3.3492,-3.3528,-3.3542,-3.3569,-3.3582,-3.3621,-3.3609,-3.3664,-3.3644,-3.3664,-3.3679,-3.3681,-3.3685,-3.3671,-3.3696,-3.3743,-3.3749,-3.3691,-3.369,-3.3689,0,-3.3248,-3.3312,-3.3357,-3.3375,-3.3427,-3.3447,-3.347,-3.3505,-3.353,-3.3565,-3.3581,-3.362,-3.3641,-3.3671,-3.3694,-3.3683,-3.3747,-3.3737,-3.3759,-3.3758,-3.377,-3.3769,-3.3821,-3.3784,-3.3784,-3.3784,-3.3783,0,-3.3286,-3.3322,-3.3363,-3.339,-3.3432,-3.3457,-3.3497,-3.352,-3.3553,-3.3584,-3.36,-3.3629,-3.3657,-3.3691,-3.3709,-3.3752,-3.3761,-3.3773,-3.3777,-3.3771,-3.377,-3.3784,-3.3782,-3.3785,-3.3785,-3.3785,-3.3784,0,-3.3306,-3.3335,-3.3384,-3.3431,-3.3443,-3.3471,-3.351,-3.3538,-3.356,-3.36,-3.3611,-3.3646,-3.3686,-3.3712,-3.3763,-3.3775,-3.3822,-3.3825,-3.381,-3.3812,-3.3832,-3.383,-3.3894,-3.3904,-3.3861,-3.3862,-3.3862,0,-3.3328,-3.3356,-3.3406,-3.343,-3.3453,-3.349,-3.3515,-3.3542,-3.3568,-3.3613,-3.3635,-3.3676,-3.3711,-3.3775,-3.3804,-3.3843,-3.3847,-3.3868,-3.3853,-3.3847,-3.3848,-3.3846,-3.3849,-3.3869,-3.387,-3.387,-3.387,0,-3.3363,-3.3377,-3.3414,-3.3456,-3.3487,-3.3521,-3.3555,-3.3573,-3.3606,-3.3634,-3.3677,-3.3704,-3.3757,-3.3798,-3.3841,-3.3863,-3.3872,-3.3875,-3.3882,-3.3876,-3.3866,-3.3872,-3.3816,-3.3873,-3.3872,-3.3872,-3.3872,-3.3872,-3.3385,-3.3412,-3.3452,-3.3493,-3.3522,-3.3554,-3.3582,-3.3609,-3.3646,-3.3692,-3.3706,-3.375,-3.3787,-3.3846,-3.3869,-3.3904,-3.3902,-3.3912,-3.3914,-3.3916,-3.3917,-3.3861,-3.3912,-3.3912,-3.3912,-3.3912,-3.3912,0,-3.3422,-3.3449,-3.3487,-3.3535,-3.3568,-3.3576,-3.3614,-3.3641,-3.368,-3.3715,-3.3749,-3.3799,-3.3839,-3.3873,-3.3915,-3.3937,-3.3942,-3.3947,-3.3945,-3.395,-3.3916,-3.3906,-3.3942,-3.3942,-3.3942,-3.3942,-3.3942,-3.3942,-3.3445,-3.3491,-3.3509,-3.357,-3.3597,-3.3642,-3.3663,-3.3693,-3.3722,-3.3777,-3.3811,-3.3834,-3.3868,-3.3913,-3.3951,-3.396,-3.3975,-3.3979,-3.3988,-3.3956,-3.3952,-3.3949,-3.394,-3.3982,-3.3982,-3.4019,-3.402,-3.402]}]]